[[{"header":{"parameterUnit":"m.s-1","parameterCategory":2,"la1":30.2992,"la2":30.254,"lo1":-89.0895,"lo2":-89.0443,"dy":0.0025,"dx":0.0025,"nx":19,"ny":19,"refTime":"2026-03-20T03:00:00:Z","depth":"0","parameterNumber":2,"parameterNumberName":"U-component_of_CURRENTS"},"data":[0,0,0,0.4332,0.4333,0.434,0.434,0.4454,0.4456,0,0,0,0,0,0,0,0,0,0,0,0.432,0.432,0.4332,0.4333,0.434,0.434,0.4454,0.4456,0,0,0,0,0,0,0,0,0,0,0,0.4319,0.432,0.432,0.4333,0.434,0.4339,0.4454,0.4417,0,0,0,0,0,0,0,0,0,0,0.4395,0.4389,0.432,0.432,0.4333,0.434,0.4339,0.4414,0.4419,0.4488,0,0.4495,0,0.4496,0.4468,0.4468,0,0,0,0.4312,0.4384,0.438,0.432,0.4333,0.434,0.4331,0.4416,0.4422,0.4496,0.4496,0.45,0.4498,0.4469,0.447,0.4774,0.4775,0,0,0.4311,0.4329,0.4375,0.4384,0.4347,0.4331,0.4331,0.4418,0.4437,0.4496,0.4502,0.45,0.447,0.4472,0.4772,0.4774,0,0,0,0.4324,0.4329,0.432,0.438,0.4383,0.4331,0.4332,0.4432,0.4428,0.4504,0.4501,0.4471,0.4473,0.4769,0.4773,0.4838,0,0,0,0.4323,0.4338,0.432,0.4331,0.4381,0.4399,0.4345,0.4421,0.4431,0.4501,0.4471,0.4475,0.4767,0.4771,0.4832,0.4841,0,0,0,0.4317,0.4338,0.4339,0.4332,0.4345,0.4396,0.4395,0.4421,0.4432,0.4469,0.4476,0.4766,0.477,0.4826,0.4833,0.4847,0,0,0,0.4332,0.4466,0.434,0.4495,0.4345,0.4511,0.4394,0.4507,0.4559,0.4472,0.4768,0.4772,0.4824,0.4828,0.4842,0.4705,0.4714,0,0,0.4538,0.4491,0.4589,0.4479,0.4592,0.4508,0.4678,0.4665,0.4648,0.4737,0.4743,0.4834,0.4832,0.4846,0.4978,0.4978,0,0,0,0.468,0.4705,0.4738,0.4748,0.4805,0.478,0.48,0.4811,0.4846,0.47,0.4912,0.491,0.4915,0.4827,0.4829,0.4621,0.4794,0.4794,0.4793,0.4902,0.4879,0.4962,0.492,0.5007,0.5007,0.5036,0.5047,0.5032,0.5064,0.5022,0.5158,0.5073,0.5071,0.4862,0.5101,0.5101,0.5102,0.5102,0.5058,0.5027,0.5014,0.5065,0.5028,0.5133,0.5219,0.5188,0.5238,0.5191,0.5191,0.4975,0.5076,0.4853,0.5107,0.5106,0.5106,0.5105,0.5105,0.5026,0.4997,0.5021,0.5027,0.5055,0.5113,0.5146,0.5216,0.5281,0.5303,0.5155,0.5151,0.4895,0.5281,0.5281,0.5281,0.5281,0.5281,0.5281,0.4921,0.4953,0.4918,0.496,0.4941,0.4969,0.5075,0.5126,0.5199,0.5221,0.5219,0.4935,0.5211,0.5135,0.5284,0.5283,0.5283,0.5283,0.5283,0.4799,0.4811,0.4773,0.4749,0.4732,0.4677,0.4844,0.4927,0.5025,0.505,0.4868,0.5172,0.5119,0.5116,0.504,0.5155,0.5155,0.5155,0.5155,0.4675,0.4694,0.4596,0.4544,0.451,0.4531,0.4443,0.4584,0.4697,0.4672,0.4703,0.4612,0.4627,0.4541,0.4551,0.4462,0.4427,0.4426,0.4425,0.4563,0.4556,0.4441,0.4419,0.4379,0.4333,0.4171,0.4103,0.4262,0.438,0.4447,0.4478,0.4331,0.437,0.4225,0.4255,0.4106,0,0]},{"header":{"parameterUnit":"m.s-1","parameterCategory":2,"la1":30.2992,"la2":30.254,"lo1":-89.0895,"lo2":-89.0443,"dy":0.0025,"dx":0.0025,"nx":19,"ny":19,"refTime":"2026-03-20T03:00:00:Z","depth":"0","parameterNumber":3,"parameterNumberName":"V-component_of_CURRENTS"},"data":[0,0,0,0.0805,0.0807,0.0855,0.0855,0.0866,0.0866,0,0,0,0,0,0,0,0,0,0,0,0.0778,0.0778,0.0805,0.0807,0.0855,0.0855,0.0866,0.0866,0,0,0,0,0,0,0,0,0,0,0,0.0777,0.0778,0.0779,0.0808,0.0855,0.0855,0.0866,0.0836,0,0,0,0,0,0,0,0,0,0,0.0793,0.077,0.0778,0.0779,0.0808,0.0855,0.0855,0.0834,0.0837,0.0838,0,0.0861,0,0.0881,0.0868,0.0868,0,0,0,0.078,0.0767,0.0803,0.0779,0.0809,0.0855,0.0826,0.0836,0.084,0.0842,0.0861,0.0862,0.0881,0.0868,0.0869,0.1001,0.1003,0,0,0.0777,0.076,0.0801,0.0806,0.084,0.0824,0.0828,0.0839,0.0836,0.0861,0.0863,0.0881,0.0869,0.0869,0.1,0.1002,0,0,0,0.0788,0.0758,0.0793,0.0804,0.0827,0.0826,0.083,0.0834,0.0854,0.0863,0.0881,0.0869,0.0869,0.0999,0.1001,0.1145,0,0,0,0.0785,0.0767,0.0792,0.0778,0.0827,0.0836,0.0825,0.0852,0.0855,0.0881,0.0869,0.0869,0.0998,0.1,0.1138,0.1256,0,0,0,0.0772,0.0765,0.0782,0.0778,0.0815,0.0837,0.0854,0.0852,0.0867,0.0868,0.087,0.0997,0.1,0.1132,0.1243,0.1362,0,0,0,0.0736,0.082,0.0781,0.0866,0.0815,0.0927,0.0854,0.0906,0.0919,0.0869,0.0998,0.1001,0.113,0.1236,0.1354,0.1407,0.1449,0,0,0.0838,0.0831,0.0884,0.0853,0.0973,0.0917,0.1053,0.1022,0.0961,0.0982,0.0985,0.114,0.1243,0.136,0.1575,0.1611,0,0,0,0.0915,0.0969,0.0991,0.1044,0.1078,0.1143,0.1125,0.1123,0.1133,0.0987,0.1159,0.1221,0.1289,0.1305,0.1334,0.1048,0.1014,0.1014,0.1014,0.1066,0.108,0.1174,0.1213,0.1269,0.1312,0.137,0.1368,0.1267,0.1296,0.1349,0.1561,0.1579,0.1602,0.1305,0.1333,0.1333,0.1334,0.1334,0.125,0.1292,0.1314,0.1407,0.144,0.1539,0.1614,0.1579,0.1669,0.1523,0.1579,0.1471,0.1643,0.1314,0.1344,0.1342,0.1341,0.134,0.1339,0.1336,0.1349,0.1399,0.15,0.161,0.1665,0.183,0.1848,0.1829,0.1905,0.1883,0.1879,0.1582,0.1902,0.1903,0.1904,0.1905,0.1905,0.1906,0.1361,0.1419,0.1479,0.1588,0.1648,0.1782,0.1949,0.2049,0.2138,0.2102,0.2101,0.1637,0.1735,0.1703,0.1923,0.192,0.1917,0.1916,0.1915,0.1423,0.1418,0.1529,0.1589,0.1765,0.1976,0.2106,0.2351,0.2428,0.2503,0.1975,0.2198,0.217,0.2143,0.2121,0.2437,0.2437,0.2437,0.2437,0.1413,0.1433,0.1551,0.1676,0.1867,0.207,0.2425,0.2627,0.2435,0.2228,0.2026,0.1833,0.1824,0.176,0.1743,0.1705,0.1908,0.1907,0.1906,0.1415,0.1452,0.1536,0.1679,0.1914,0.2206,0.26,0.2887,0.2392,0.1847,0.1621,0.1644,0.1313,0.1322,0.1174,0.1172,0.1094,0,0]}],[{"header":{"parameterUnit":"m.s-1","parameterCategory":2,"la1":30.2992,"la2":30.254,"lo1":-89.0895,"lo2":-89.0443,"dy":0.0025,"dx":0.0025,"nx":19,"ny":19,"refTime":"2026-03-20T03:00:00:Z","depth":"2","parameterNumber":2,"parameterNumberName":"U-component_of_CURRENTS"},"data":[0,0,0,0.2916,0.292,0.3047,0.3047,0.3157,0.3158,0,0,0,0,0,0,0,0,0,0,0,0.2873,0.2875,0.2915,0.292,0.3047,0.3047,0.3156,0.3158,0,0,0,0,0,0,0,0,0,0,0,0.2872,0.2874,0.2877,0.2921,0.3047,0.3047,0.3156,0.3065,0,0,0,0,0,0,0,0,0,0,0.2944,0.2938,0.2874,0.2877,0.2922,0.3047,0.3047,0.3061,0.3071,0.3095,0,0.3149,0,0.3173,0.3167,0.3168,0,0,0,0.2884,0.293,0.296,0.2877,0.2923,0.3047,0.298,0.3066,0.3077,0.3108,0.3151,0.3155,0.3175,0.3168,0.3169,0.3296,0.3296,0,0,0.2877,0.2891,0.2953,0.2969,0.3002,0.2976,0.2984,0.3073,0.3106,0.3151,0.3158,0.3177,0.3169,0.317,0.3296,0.3296,0,0,0,0.2881,0.2887,0.2915,0.2963,0.3001,0.298,0.299,0.3101,0.3112,0.316,0.3178,0.317,0.3172,0.3295,0.3296,0.3306,0,0,0,0.2875,0.2891,0.2913,0.2921,0.3001,0.3065,0.3016,0.3105,0.3116,0.3177,0.317,0.3173,0.3295,0.3296,0.3305,0.3313,0,0,0,0.2859,0.2889,0.2916,0.2921,0.2992,0.3064,0.3078,0.3107,0.3129,0.3168,0.3174,0.3295,0.3295,0.3304,0.3312,0.3388,0,0,0,0.2846,0.2846,0.2918,0.2959,0.2992,0.298,0.3077,0.3133,0.3168,0.3171,0.3295,0.3296,0.3304,0.3311,0.3386,0.317,0.3163,0,0,0.2806,0.2843,0.2866,0.2932,0.2894,0.2958,0.2972,0.311,0.3185,0.3255,0.3258,0.3306,0.3312,0.3388,0.3217,0.3208,0,0,0,0.2827,0.2775,0.2813,0.2821,0.2885,0.2918,0.2991,0.3131,0.3287,0.322,0.3319,0.3323,0.3371,0.3236,0.3229,0.33,0.3299,0.3299,0.3299,0.2623,0.2666,0.2687,0.2707,0.2741,0.2873,0.2958,0.3129,0.3236,0.3362,0.3341,0.3418,0.3272,0.3265,0.3351,0.3351,0.3351,0.3351,0.3351,0.2489,0.253,0.2596,0.2645,0.275,0.2796,0.2998,0.3126,0.3336,0.3413,0.3459,0.3264,0.3258,0.3352,0.3352,0.3352,0.3351,0.3351,0.3351,0.2319,0.2385,0.2465,0.2589,0.2716,0.289,0.304,0.3197,0.3377,0.3382,0.3352,0.3348,0.3443,0.3496,0.3496,0.3497,0.3497,0.3497,0.3498,0.2255,0.2316,0.2388,0.2559,0.2672,0.2879,0.3123,0.3196,0.3316,0.3356,0.3355,0.3468,0.3464,0.3453,0.3503,0.3502,0.3502,0.3501,0.3501,0.2133,0.2224,0.2251,0.2353,0.2597,0.2634,0.293,0.3031,0.3163,0.3128,0.331,0.3312,0.3301,0.3302,0.3288,0.3294,0.3294,0.3294,0.3294,0.2095,0.2137,0.218,0.2235,0.2366,0.2497,0.2471,0.2572,0.2789,0.2903,0.292,0.2795,0.2811,0.2767,0.2781,0.2755,0.2622,0.2621,0.262,0.2103,0.2102,0.2078,0.2141,0.2248,0.2291,0.2162,0.2133,0.2363,0.2596,0.2828,0.3244,0.31,0.311,0.3075,0.3085,0.3056,0,0]},{"header":{"parameterUnit":"m.s-1","parameterCategory":2,"la1":30.2992,"la2":30.254,"lo1":-89.0895,"lo2":-89.0443,"dy":0.0025,"dx":0.0025,"nx":19,"ny":19,"refTime":"2026-03-20T03:00:00:Z","depth":"2","parameterNumber":3,"parameterNumberName":"V-component_of_CURRENTS"},"data":[0,0,0,0.0267,0.0268,0.0262,0.0262,0.0191,0.0191,0,0,0,0,0,0,0,0,0,0,0,0.0259,0.0259,0.0267,0.0268,0.0262,0.0262,0.0192,0.0191,0,0,0,0,0,0,0,0,0,0,0,0.0259,0.0259,0.0259,0.0268,0.0262,0.0262,0.0192,0.0206,0,0,0,0,0,0,0,0,0,0,0.0217,0.0226,0.0259,0.0259,0.0268,0.0263,0.0262,0.0207,0.0205,0.0184,0,0.0194,0,0.0205,0.0187,0.0187,0,0,0,0.0244,0.0228,0.0234,0.0259,0.0269,0.0263,0.0258,0.0206,0.0204,0.0181,0.0193,0.0191,0.0204,0.0187,0.0186,0.0174,0.0174,0,0,0.0244,0.0245,0.0236,0.0233,0.0281,0.0259,0.0258,0.0205,0.0202,0.0193,0.019,0.0203,0.0186,0.0186,0.0174,0.0174,0,0,0,0.0262,0.0245,0.0253,0.0235,0.0247,0.0259,0.0259,0.0204,0.021,0.0189,0.0202,0.0186,0.0185,0.0173,0.0174,0.0272,0,0,0,0.0261,0.0258,0.0254,0.0252,0.0249,0.0235,0.0259,0.0213,0.0208,0.0202,0.0186,0.0185,0.0173,0.0173,0.0269,0.0298,0,0,0,0.0257,0.0257,0.0262,0.0253,0.0264,0.0237,0.0238,0.0212,0.0216,0.0187,0.0184,0.0173,0.0173,0.0266,0.0293,0.0384,0,0,0,0.0248,0.0267,0.0262,0.0289,0.0264,0.0248,0.0238,0.0229,0.0208,0.0186,0.0173,0.0174,0.0265,0.029,0.038,0.0416,0.0437,0,0,0.0269,0.0269,0.0287,0.0284,0.0304,0.0246,0.026,0.0243,0.0211,0.0181,0.0181,0.027,0.0293,0.0384,0.0458,0.0478,0,0,0,0.0292,0.0295,0.0305,0.0315,0.0302,0.03,0.0255,0.0267,0.0278,0.0208,0.0257,0.0267,0.0323,0.0335,0.0351,0.0177,0.0177,0.0177,0.0177,0.0283,0.0299,0.0327,0.0335,0.0326,0.0324,0.0327,0.0323,0.0297,0.0336,0.0339,0.0459,0.0471,0.0484,0.0335,0.0335,0.0335,0.0336,0.0336,0.031,0.0337,0.0345,0.0377,0.0383,0.0382,0.0402,0.0414,0.0467,0.0424,0.0474,0.0425,0.0508,0.0343,0.0342,0.0341,0.034,0.034,0.0339,0.0321,0.034,0.0356,0.0413,0.0464,0.0482,0.063,0.0602,0.0553,0.0586,0.0639,0.0637,0.0537,0.0654,0.0655,0.0655,0.0656,0.0656,0.0656,0.0335,0.0353,0.0424,0.0481,0.0564,0.0694,0.0792,0.0837,0.0812,0.0739,0.074,0.0566,0.0556,0.0555,0.0665,0.0663,0.0662,0.0661,0.0661,0.0368,0.0398,0.0518,0.0607,0.0825,0.1075,0.1119,0.1185,0.1153,0.1114,0.0823,0.0816,0.0791,0.0776,0.078,0.0942,0.0942,0.0942,0.0942,0.0412,0.0426,0.0635,0.0827,0.1073,0.1263,0.153,0.1413,0.1168,0.0972,0.097,0.0895,0.0884,0.0858,0.0841,0.0842,0.1021,0.1021,0.1021,0.0458,0.0522,0.0702,0.0898,0.1196,0.1507,0.1732,0.1563,0.1152,0.102,0.0942,0.0956,0.0835,0.0821,0.0768,0.0746,0.0742,0,0]}],[{"header":{"parameterUnit":"m.s-1","parameterCategory":2,"la1":30.2992,"la2":30.254,"lo1":-89.0895,"lo2":-89.0443,"dy":0.0025,"dx":0.0025,"nx":19,"ny":19,"refTime":"2026-03-20T03:00:00:Z","depth":"4","parameterNumber":2,"parameterNumberName":"U-component_of_CURRENTS"},"data":[0,0,0,0.1535,0.1538,0.1687,0.1687,0.1741,0.1741,0,0,0,0,0,0,0,0,0,0,0,0.1481,0.1482,0.1534,0.1538,0.1687,0.1687,0.1741,0.1741,0,0,0,0,0,0,0,0,0,0,0,0.1481,0.1482,0.1483,0.1539,0.1687,0.1688,0.1741,0.1661,0,0,0,0,0,0,0,0,0,0,0.1534,0.1516,0.1482,0.1483,0.154,0.1687,0.1688,0.1659,0.1666,0.1635,0,0.1668,0,0.1705,0.1742,0.1742,0,0,0,0.1534,0.1511,0.1541,0.1484,0.1541,0.1686,0.1619,0.1664,0.1672,0.1644,0.1669,0.1672,0.1706,0.1742,0.1742,0.1756,0.1756,0,0,0.1526,0.1513,0.1536,0.1546,0.1589,0.1614,0.1623,0.1671,0.1685,0.1669,0.1674,0.1707,0.1742,0.1742,0.1756,0.1756,0,0,0,0.1505,0.1507,0.154,0.1543,0.1581,0.1618,0.1629,0.1683,0.1692,0.1675,0.1708,0.1742,0.1742,0.1756,0.1756,0.1793,0,0,0,0.15,0.1496,0.1536,0.1531,0.1582,0.1656,0.164,0.1689,0.1696,0.1708,0.1742,0.1742,0.1756,0.1756,0.1792,0.1783,0,0,0,0.1473,0.1493,0.1511,0.1529,0.1595,0.1657,0.167,0.1692,0.1715,0.1742,0.1742,0.1756,0.1756,0.1791,0.1782,0.1829,0,0,0,0.1451,0.1422,0.1511,0.1497,0.1594,0.1618,0.167,0.1727,0.1753,0.1742,0.1756,0.1756,0.1791,0.1781,0.1827,0.1636,0,0,0,0.1377,0.1414,0.14,0.1482,0.1482,0.1597,0.1622,0.1708,0.1739,0.1729,0.1731,0.1793,0.1781,0.1828,0.1647,0,0,0,0,0.1351,0.1343,0.1358,0.14,0.1459,0.1557,0.1645,0.1693,0.1773,0.1758,0.1785,0.1776,0.1805,0.1689,0.1757,0.1757,0.1757,0.1757,0.1757,0.1199,0.1253,0.1247,0.1329,0.138,0.1534,0.1615,0.17,0.1732,0.1792,0.1803,0.1852,0.173,0.1811,0.1811,0.1812,0.1812,0.1812,0.1812,0.109,0.1098,0.12,0.1221,0.1357,0.1422,0.1592,0.1688,0.1802,0.181,0.1839,0.1729,0.1815,0.1815,0.1814,0.1814,0.1813,0.1813,0.1813,0.1012,0.1025,0.1074,0.1153,0.1255,0.141,0.1546,0.1701,0.1812,0.1874,0.1784,0.1878,0.1881,0.192,0.1921,0.1921,0.1921,0.1921,0.1921,0.0925,0.0967,0.0998,0.1088,0.1155,0.1299,0.1547,0.1654,0.1812,0.1784,0.1902,0.1889,0.1885,0.1887,0.1924,0.1923,0.1923,0.1923,0.1923,0.0823,0.0874,0.09,0.0955,0.1088,0.1177,0.1422,0.1596,0.1695,0.1709,0.174,0.1749,0.1718,0.1719,0.1713,0.17,0.1698,0.1696,0,0.0758,0.0783,0.082,0.0871,0.0951,0.1102,0.1228,0.1382,0.1526,0.1474,0.1668,0.1695,0.1702,0.1659,0.1657,0.1643,0,0,0,0.0698,0.0727,0.0721,0.0789,0.0872,0.1051,0.1253,0.1281,0.1494,0.1544,0.1637,0.1653,0.1803,0.1932,0.1905,0.1901,0.1901,0,0]},{"header":{"parameterUnit":"m.s-1","parameterCategory":2,"la1":30.2992,"la2":30.254,"lo1":-89.0895,"lo2":-89.0443,"dy":0.0025,"dx":0.0025,"nx":19,"ny":19,"refTime":"2026-03-20T03:00:00:Z","depth":"4","parameterNumber":3,"parameterNumberName":"V-component_of_CURRENTS"},"data":[0,0,0,0.0123,0.0124,0.0104,0.0104,0.0037,0.0037,0,0,0,0,0,0,0,0,0,0,0,0.012,0.012,0.0123,0.0124,0.0104,0.0104,0.0037,0.0037,0,0,0,0,0,0,0,0,0,0,0,0.012,0.012,0.012,0.0124,0.0105,0.0104,0.0037,0.0058,0,0,0,0,0,0,0,0,0,0,0.008,0.0091,0.012,0.012,0.0124,0.0105,0.0104,0.0059,0.0057,0.0039,0,0.0042,0,0.0049,0.0033,0.0033,0,0,0,0.0106,0.0094,0.0092,0.012,0.0124,0.0105,0.0108,0.0058,0.0055,0.0036,0.0041,0.0039,0.0048,0.0032,0.0032,0.0,0.0,0,0,0.0107,0.011,0.0094,0.009,0.0125,0.0109,0.0108,0.0057,0.0053,0.0041,0.0038,0.0047,0.0032,0.0032,0.0,0.0,0,0,0,0.0122,0.0111,0.0111,0.0092,0.0099,0.0109,0.0107,0.0055,0.0057,0.0038,0.0046,0.0032,0.0031,-0.0,0.0,0.0073,0,0,0,0.0122,0.0121,0.0111,0.0112,0.01,0.0084,0.0107,0.0059,0.0055,0.0046,0.0032,0.003,-0.0,-0.0,0.0071,0.0119,0,0,0,0.012,0.0121,0.0122,0.0112,0.0114,0.0085,0.0083,0.0058,0.0061,0.0033,0.003,-0.0,-0.0,0.0069,0.0114,0.0105,0,0,0,0.0119,0.0143,0.0121,0.0148,0.0114,0.012,0.0083,0.0075,0.0056,0.0031,-0.0,0.0,0.0069,0.0112,0.0103,0.0146,0,0,0,0.0155,0.0147,0.0164,0.0145,0.0186,0.0121,0.0135,0.0092,0.005,0.001,0.001,0.0072,0.0114,0.0105,0.0155,0,0,0,0,0.0179,0.0199,0.0203,0.022,0.0204,0.0194,0.0141,0.0111,0.0077,0.0043,0.0055,0.0079,0.0071,0.0089,0.0001,0.0001,0.0001,0.0001,0.0001,0.024,0.0243,0.0283,0.0286,0.028,0.0237,0.0213,0.0158,0.0111,0.0104,0.0126,0.0155,0.0176,0.0101,0.0101,0.0102,0.0102,0.0102,0.0102,0.0314,0.0338,0.0344,0.0387,0.0366,0.0363,0.0292,0.0251,0.0205,0.0171,0.0158,0.015,0.0109,0.0108,0.0107,0.0106,0.0105,0.0105,0.0105,0.0352,0.0366,0.0396,0.045,0.0482,0.0449,0.0455,0.0383,0.0286,0.028,0.0256,0.0192,0.0198,0.026,0.026,0.026,0.026,0.026,0.026,0.0371,0.0403,0.0462,0.0519,0.0567,0.0595,0.0553,0.051,0.0404,0.0349,0.0297,0.0207,0.0202,0.0205,0.0263,0.0263,0.0262,0.0262,0.0262,0.0409,0.0424,0.0513,0.0574,0.0683,0.0708,0.0683,0.058,0.0528,0.0445,0.0359,0.0354,0.0325,0.0316,0.0323,0.0418,0.0419,0.0419,0,0.0427,0.0443,0.056,0.0664,0.0754,0.0773,0.0745,0.0675,0.0526,0.0524,0.0493,0.0401,0.0394,0.0365,0.0358,0.0369,0,0,0,0.0451,0.0487,0.0571,0.0679,0.0792,0.0763,0.0734,0.0694,0.0563,0.0511,0.0439,0.0434,0.0369,0.0272,0.0213,0.0207,0.0209,0,0]}]]